Change the Weather History Date:

Thursday, January 30, 2014

  Actual Average Record
Temperature  
Mean Temperature 57 °F 54 °F  
Max Temperature 60 °F 66 °F 85 °F (1953)
Min Temperature 53 °F 42 °F 30 °F (1969)
Degree Days  
Heating Degree Days 8 11  
Month to date heating degree days 197 330  
Since 1 July heating degree days 708 1011  
Cooling Degree Days 0 0  
Month to date cooling degree days 27 0  
Year to date cooling degree days 27 0  
Growing Degree Days 6 (Base 50)    
Moisture  
Dew Point 52 °F    
Average Humidity 83    
Maximum Humidity 93    
Minimum Humidity 72    
Precipitation  
Precipitation 0.01 in 0.08 in 1.42 in (1966)
Month to date precipitation 0.01 3.39  
Year to date precipitation 0.01 3.39  
Since 1 July precipitation 0.83  
Sea Level Pressure  
Sea Level Pressure 29.93 in    
Wind  
Wind Speed 5 mph (WSW)    
Max Wind Speed 14 mph    
Max Gust Speed 15 mph    
Visibility 5 miles    
Events Rain    
T = Trace of Precipitation, MM = Missing Value Source: NWS Daily Summary

Daily Weather History Graph

Daily Weather History Graph

Search for Another Location

Airport or City:

Trip Planner

Search our weather history database for the weather conditions in past years. The results will help you decide how hot, cold, wet, or windy it might be!

Date:

Astronomy

Jan. 30, 2014 Rise Set
Actual Time 6:55 AM PST 5:24 PM PST
Civil Twilight 6:28 AM PST 5:51 PM PST
Nautical Twilight 5:58 AM PST 6:21 PM PST
Astronomical Twilight 5:28 AM PST 6:50 PM PST
Moon 6:26 AM PST 5:39 PM PST
Length of Visible Light 11h 22m
Length of Day
10h 29m
Waning Crescent, 0% of the Moon is Illuminated
Jan 30
Waning Crescent
Jan 30
New
Feb 6
First Quarter
Feb 14
Full
Feb 22
Last Quarter

Hourly Weather History & Observations

Time (PST) Temp. Dew Point Humidity Pressure Visibility Wind Dir Wind Speed Gust Speed Precip Events Conditions
12:06 AM 55.4 °F 53.6 °F 94% 29.94 in 2.5 mi North 4.6 mph - N/A   Overcast
12:33 AM 55.4 °F 53.6 °F 94% 29.94 in 1.5 mi NE 3.5 mph - N/A   Overcast
12:43 AM 55.4 °F 53.6 °F 94% 29.94 in 2.0 mi NE 3.5 mph - N/A   Overcast
12:55 AM 55.0 °F 53.1 °F 93% 29.97 in 2.0 mi NNE 3.5 mph - N/A   Overcast
1:20 AM 55.4 °F 53.6 °F 94% 29.94 in 3.0 mi Calm Calm - N/A   Overcast
1:55 AM 55.0 °F 53.1 °F 93% 29.96 in 3.0 mi NW 3.5 mph - N/A   Overcast
2:55 AM 55.0 °F 53.1 °F 93% 29.95 in 2.0 mi Calm Calm - N/A   Overcast
2:58 AM 53.6 °F 53.6 °F 100% 29.93 in 1.5 mi North 3.5 mph - N/A   Overcast
3:05 AM 53.6 °F 53.6 °F 100% 29.93 in 2.0 mi NNW 4.6 mph - N/A   Overcast
3:20 AM - - N/A% 29.92 in 1.5 mi Calm Calm - N/A   Overcast
3:55 AM 55.0 °F 53.1 °F 93% 29.95 in 1.8 mi NE 3.5 mph - N/A   Overcast
4:02 AM 53.6 °F 53.6 °F 100% 29.92 in 2.0 mi NE 3.5 mph - N/A   Overcast
4:19 AM 53.6 °F 51.8 °F 94% 29.92 in 3.0 mi NE 4.6 mph - N/A   Overcast
4:55 AM 54.0 °F 52.0 °F 93% 29.95 in 4.0 mi NNE 5.8 mph - N/A   Mostly Cloudy
5:22 AM 53.6 °F 51.8 °F 94% 29.93 in 4.0 mi Calm Calm - N/A   Mostly Cloudy
5:55 AM 53.1 °F 51.1 °F 93% 29.95 in 4.0 mi East 6.9 mph - N/A   Overcast
6:55 AM 53.1 °F 50.0 °F 89% 29.96 in 6.0 mi NE 4.6 mph - N/A   Overcast
7:55 AM 55.0 °F 50.0 °F 83% 29.97 in 4.0 mi Calm Calm - N/A   Haze
8:55 AM 55.9 °F 51.1 °F 84% 29.99 in 4.0 mi Calm Calm - N/A   Haze
9:55 AM 57.0 °F 51.1 °F 81% 29.99 in 4.0 mi Calm Calm - N/A   Haze
10:55 AM 59.0 °F 51.1 °F 75% 29.99 in 4.0 mi Calm Calm - N/A   Haze
11:55 AM 60.1 °F 52.0 °F 75% 29.96 in 4.0 mi SW 5.8 mph - N/A   Haze
12:25 PM 59.0 °F 51.8 °F 77% 29.92 in 4.0 mi SW 4.6 mph - N/A   Haze
12:55 PM 60.1 °F 52.0 °F 75% 29.93 in 4.0 mi SW 8.1 mph - N/A   Haze
1:44 PM 57.2 °F 53.6 °F 88% 29.89 in 2.0 mi SSW 8.1 mph - N/A   Overcast
1:55 PM 57.9 °F 54.0 °F 87% 29.92 in 2.0 mi SSW 9.2 mph - N/A   Overcast
2:20 PM 57.2 °F 55.4 °F 94% 29.88 in 1.2 mi SSW 9.2 mph - 0.01 in Rain Light Rain
2:37 PM 57.2 °F 55.4 °F 94% 29.88 in 2.0 mi WSW 8.1 mph - 0.01 in Rain Light Rain
2:55 PM 57.9 °F 55.0 °F 90% 29.90 in 5.0 mi WSW 8.1 mph - 0.01 in   Overcast
3:14 PM 57.2 °F 53.6 °F 88% 29.87 in 10.0 mi WSW 9.2 mph - N/A   Overcast
3:31 PM 57.2 °F 53.6 °F 88% 29.87 in 10.0 mi WSW 9.2 mph - N/A   Overcast
3:55 PM 57.9 °F 54.0 °F 87% 29.90 in 10.0 mi WSW 8.1 mph - N/A   Overcast
4:02 PM 57.2 °F 53.6 °F 88% 29.87 in 10.0 mi WSW 9.2 mph - N/A   Overcast
4:55 PM 57.9 °F 52.0 °F 81% 29.90 in 10.0 mi West 12.7 mph - N/A   Overcast
5:55 PM 57.9 °F 52.0 °F 81% 29.90 in 10.0 mi Calm Calm - N/A   Overcast
6:55 PM 57.0 °F 52.0 °F 83% 29.91 in 10.0 mi SSW 9.2 mph - N/A   Overcast
7:55 PM 57.0 °F 52.0 °F 83% 29.90 in 10.0 mi SSW 3.5 mph - N/A   Mostly Cloudy
8:55 PM 57.0 °F 51.1 °F 81% 29.91 in 10.0 mi SW 6.9 mph - N/A   Mostly Cloudy
9:02 PM 57.2 °F 51.8 °F 82% 29.89 in 10.0 mi SW 5.8 mph - N/A   Overcast
9:50 PM 55.4 °F 50.0 °F 82% 29.90 in 10.0 mi WSW 5.8 mph - N/A   Mostly Cloudy
9:55 PM 55.9 °F 50.0 °F 80% 29.93 in 10.0 mi WSW 5.8 mph - N/A   Mostly Cloudy
10:55 PM 55.9 °F 50.0 °F 80% 29.94 in 10.0 mi SSW 4.6 mph - N/A   Scattered Clouds
11:55 PM 55.0 °F 50.0 °F 83% 29.92 in 10.0 mi SSW 5.8 mph - N/A   Partly Cloudy